Location: Lombard
(41.8800°N, 88.0080°W)
Time: 00:01:21
(UTC-05:00)

Transit 2A - Pass Details

Date: 10 February 2023
Orbit: 591 x 964 km, 66.7° (Epoch: 20 March)

Event Time Altitude Azimuth Distance (km) Brightness Sun altitude
Rises 21:46:12 0° 339° (NNW) 3,476 9.9 -49.0°
Enters shadow 21:47:27 - 345° (NNW) 3,141 9.6 -49.2°
Reaches altitude 10° 21:49:57 10° 3° (N) 2,602 - -49.6°
Maximum altitude 21:53:13 15° 35° (NE) 2,326 - -50.1°
Drops below altitude 10° 21:56:33 10° 68° (ENE) 2,678 - -50.6°
Sets 22:00:31 0° 91° (E) 3,644 - -51.2°
